GW1707 Weather Reports


time (UTC)temp
C
wind
direction
speed
KPH
gust
KPH
rain 1hr
cm
rain 24hr
cm
rain mn
cm
humidity
%
barometer
mb
20260505024555 12 0 0.0 0.0 0.00 0.56 0.00 92 1025.6
20260505023054 11 0 0.0 0.0 0.00 0.56 0.00 93 1025.7
20260505021553 11 0 0.0 0.0 0.00 0.56 0.00 95 1025.7
20260505020103 11 0 0.0 0.0 0.00 0.56 0.00 95 1025.8
20260505014553 11 0 0.0 0.0 0.00 0.56 0.00 96 1026.0
20260505013103 11 0 0.0 0.0 0.00 0.56 0.00 97 1026.0
20260505011553 10 0 0.0 0.0 0.00 0.56 0.00 97 1025.7
20260505010110 10 0 0.0 0.0 0.00 0.56 0.00 97 1025.6
20260505004555 10 0 0.0 0.0 0.00 0.56 0.00 97 1025.5
20260505003056 10 0 0.0 0.0 0.00 0.56 0.00 97 1025.3
20260505001557 10 0 0.0 0.0 0.00 0.56 0.00 97 1025.1
20260505000100 10 0 0.0 0.0 0.00 0.56 0.00 97 1025.0
20260504234553 10 0 0.0 0.0 0.00 0.56 0.00 97 1024.9
20260504233105 10 0 0.0 0.0 0.00 0.56 0.00 97 1024.8
20260504231551 10 0 0.0 0.0 0.00 0.61 0.00 97 1024.7
20260504230057 9 0 0.0 0.0 0.00 0.61 0.00 97 1024.5
20260504224552 9 0 0.0 0.0 0.00 0.61 0.00 97 1024.3
20260504223051 9 0 0.0 0.0 0.00 0.61 0.00 97 1024.2
20260504221555 8 0 0.0 0.0 0.00 0.64 0.00 97 1024.1
20260504220054 8 0 0.0 0.0 0.00 0.64 0.00 97 1024.0
20260504214558 8 0 0.0 0.0 0.00 0.64 0.00 97 1023.8
20260504213055 8 0 0.0 0.0 0.00 0.64 0.00 97 1023.6
20260504211553 8 0 0.0 0.0 0.00 0.84 0.00 97 1023.4
20260504210106 8 0 0.0 0.0 0.00 0.84 0.00 97 1023.2
20260504204605 8 0 0.0 0.0 0.00 0.84 0.00 97 1023.2
20260504203104 8 0 0.0 0.0 0.00 0.84 0.00 97 1023.1
20260504201553 8 0 0.0 0.0 0.00 0.91 0.00 96 1023.0
20260504200054 8 0 0.0 0.0 0.00 0.91 0.00 97 1022.9
20260504194601 8 0 0.0 0.0 0.00 0.91 0.00 96 1022.9
20260504193053 8 0 0.0 0.0 0.00 0.91 0.00 96 1022.7
20260504191555 8 0 0.0 0.0 0.00 0.94 0.00 96 1022.6
20260504190127 8 0 0.0 0.0 0.00 0.94 0.00 96 1022.4
20260504184551 8 0 0.0 0.0 0.00 0.94 0.00 96 1022.1
20260504183054 8 0 0.0 0.0 0.00 0.94 0.00 96 1022.0
20260504181554 9 0 0.0 0.0 0.00 0.94 0.00 96 1022.1
20260504180054 9 0 0.0 0.0 0.00 0.94 0.00 96 1022.2
20260504174600 9 0 0.0 0.0 0.00 0.94 0.00 96 1022.2
20260504173057 9 0 0.0 0.0 0.00 0.94 0.00 96 1022.0
20260504171553 9 0 0.0 0.0 0.00 0.94 0.00 96 1022.3
20260504081601 10 0 0.0 0.0 0.08 1.40 1.22 93 1018.8
20260504060118 12 0 0.0 0.0 0.00 1.17 0.91 90 1017.4
20260504050115 12 0 0.0 0.0 0.25 1.30 0.91 87 1016.9
20260504044554 13 0 0.0 0.0 0.00 1.02 0.64 87 1016.6
20260504043107 13 0 0.0 0.0 0.00 1.02 0.64 83 1016.4
20260504041554 13 0 0.0 0.0 0.00 1.04 0.64 84 1016.3
20260504040108 13 0 0.0 0.0 0.00 1.04 0.64 84 1016.3
20260504034601 13 0 0.0 0.0 0.00 1.04 0.64 84 1016.3
20260504033101 14 0 0.0 0.0 0.00 1.04 0.64 82 1016.3
20260504031604 14 0 0.0 0.0 0.00 1.12 0.64 87 1016.2
20260504030052 14 0 0.0 0.0 0.00 1.12 0.64 85 1016.4